Weather History for Niagara Falls, NY

Change the Weather History Date:

Friday, January 10, 2014

  Actual Average Record
Temperature  
Mean Temperature 28 °F -  
Max Temperature 37 °F 28 °F 44 °F (2000)
Min Temperature 19 °F 17 °F -8 °F (2004)
Degree Days  
Heating Degree Days 37    
Moisture  
Dew Point 26 °F    
Average Humidity 88    
Maximum Humidity 93    
Minimum Humidity 80    
Precipitation  
Precipitation 0.00 in - - ()
Snow  
Snow 0.00 in - - ()
Snow Depth 1.00 in    
Sea Level Pressure  
Sea Level Pressure 30.25 in    
Wind  
Wind Speed 4 mph (SSE)    
Max Wind Speed 9 mph    
Max Gust Speed -    
Visibility 4 miles    
Events Snow    
Averages and records for this station are not official NWS values.
T = Trace of Precipitation, MM = Missing Value Source: NWS Daily Summary

Daily Weather History Graph

Daily Weather History Graph

Search for Another Location

Airport:

Trip Planner

Search our weather history database for the weather conditions in past years. The results will help you decide how hot, cold, wet, or windy it might be!

Date:

Astronomy

Jan. 10, 2014 Rise Set
Actual Time 7:46 AM EST 5:00 PM EST
Civil Twilight 7:14 AM EST 5:32 PM EST
Nautical Twilight 6:39 AM EST 6:07 PM EST
Astronomical Twilight 6:05 AM EST 6:41 PM EST
Moon 1:05 PM EST (1/10) 2:49 AM EST (1/10)
Length of Visible Light 10h 17m
Length of Day
9h 14m
Waxing Gibbous, 75% of the Moon is Illuminated
Jan 10
Waxing Gibbous
Jan 15
Full
Jan 24
Last Quarter
Jan 30
New
Feb 6
First Quarter

Hourly Weather History & Observations

Time (EST) Temp. Windchill Dew Point Humidity Pressure Visibility Wind Dir Wind Speed Gust Speed Precip Events Conditions
12:00 AM 19.4 °F - 14.0 °F 80% 30.34 in 1.8 mi Calm Calm - 0.00 in Snow Light Snow
12:41 AM 21.2 °F 14.9 °F 17.6 °F 86% 30.34 in 1.2 mi SSW 4.6 mph - 0.00 in Snow Light Snow
1:05 AM 21.2 °F 16.4 °F 19.4 °F 93% 30.33 in 1.2 mi SSW 3.5 mph - 0.00 in Snow Light Snow
1:15 AM 21.2 °F 16.4 °F 19.4 °F 93% 30.32 in 1.8 mi SSW 3.5 mph - 0.00 in Snow Light Snow
1:23 AM 21.2 °F 16.4 °F 19.4 °F 93% 30.32 in 2.5 mi South 3.5 mph - 0.00 in Snow Light Snow
1:27 AM 23.0 °F 17.0 °F 19.4 °F 86% 30.32 in 3.0 mi South 4.6 mph - 0.00 in Snow Light Snow
1:36 AM 23.0 °F - 19.4 °F 86% 30.32 in 2.5 mi Calm Calm - 0.00 in Snow Light Snow
1:42 AM 23.0 °F 18.4 °F 19.4 °F 86% 30.33 in 1.2 mi South 3.5 mph - 0.00 in Snow Light Snow
1:53 AM 23.0 °F 18.4 °F 21.0 °F 92% 30.39 in 1.5 mi South 3.5 mph - 0.00 in Snow Light Snow
2:16 AM 24.8 °F 20.5 °F 21.2 °F 86% 30.33 in 3.0 mi South 3.5 mph - 0.00 in Snow Light Snow
4:25 AM 24.8 °F 17.9 °F 21.2 °F 86% 30.28 in 2.0 mi SSE 5.8 mph - 0.00 in Snow Light Snow
4:41 AM 26.6 °F 21.2 °F 23.0 °F 86% 30.27 in 1.8 mi SSE 4.6 mph - 0.00 in Snow Light Snow
4:48 AM 26.6 °F 20.0 °F 23.0 °F 86% 30.27 in 2.0 mi South 5.8 mph - 0.00 in Snow Light Snow
4:53 AM 26.1 °F 20.5 °F 24.1 °F 92% 30.33 in 1.2 mi South 4.6 mph - 0.00 in Snow Light Snow
5:03 AM 26.6 °F 21.2 °F 24.8 °F 93% 30.27 in 1.2 mi SSE 4.6 mph - 0.00 in Snow Light Snow
5:08 AM 26.6 °F 21.2 °F 24.8 °F 93% 30.27 in 2.0 mi South 4.6 mph - 0.00 in Snow Light Snow
5:53 AM 27.0 °F 23.0 °F 24.1 °F 89% 30.32 in 2.0 mi SE 3.5 mph - 0.00 in Snow Light Snow
6:53 AM 27.0 °F 23.0 °F 25.0 °F 92% 30.31 in 2.0 mi SE 3.5 mph - 0.00 in Snow Light Snow
7:03 AM 26.6 °F 22.6 °F 24.8 °F 93% 30.25 in 2.0 mi SE 3.5 mph - 0.00 in Snow Light Snow
7:25 AM 26.6 °F 21.2 °F 24.8 °F 93% 30.25 in 1.8 mi SSE 4.6 mph - 0.00 in Snow Light Snow
7:38 AM 28.4 °F 23.3 °F 24.8 °F 86% 30.25 in 1.2 mi SSE 4.6 mph - 0.00 in Snow Light Snow
7:53 AM 28.0 °F 22.8 °F 25.0 °F 88% 30.31 in 1.2 mi SSE 4.6 mph - 0.00 in Snow Light Snow
8:03 AM 28.4 °F 23.3 °F 24.8 °F 86% 30.25 in 1.8 mi SSE 4.6 mph - 0.00 in Snow Light Snow
8:30 AM 28.4 °F 24.6 °F 26.6 °F 93% 30.25 in 1.8 mi SE 3.5 mph - 0.00 in Snow Light Snow
8:53 AM 28.9 °F 23.9 °F 27.0 °F 92% 30.31 in 1.8 mi SSE 4.6 mph - 0.00 in Snow Light Snow
9:16 AM 30.2 °F 25.4 °F 28.4 °F 93% 30.25 in 2.0 mi SSE 4.6 mph - 0.00 in   Overcast
9:31 AM 30.2 °F 25.4 °F 28.4 °F 93% 30.25 in 2.0 mi SSE 4.6 mph - 0.00 in   Overcast
9:35 AM 30.2 °F 25.4 °F 28.4 °F 93% 30.25 in 2.0 mi SSE 4.6 mph - 0.00 in Snow Light Snow
9:53 AM 30.9 °F 26.2 °F 28.0 °F 89% 30.31 in 2.0 mi SSE 4.6 mph - 0.00 in Snow Light Snow
10:05 AM 30.2 °F 26.7 °F 28.4 °F 93% 30.25 in 2.5 mi SSE 3.5 mph - 0.00 in   Overcast
10:29 AM 32.0 °F 27.5 °F 28.4 °F 87% 30.25 in 3.0 mi South 4.6 mph - 0.00 in   Overcast
10:53 AM 32.0 °F 26.4 °F 28.9 °F 88% 30.30 in 3.0 mi SSE 5.8 mph - 0.00 in   Overcast
11:53 AM 34.0 °F 28.0 °F 30.0 °F 85% 30.25 in 6.0 mi South 6.9 mph - N/A   Overcast
12:55 PM 35.6 °F 28.6 °F 30.2 °F 81% 30.22 in 7.0 mi SSW 9.2 mph - N/A   Overcast
1:53 PM 36.0 °F 30.3 °F 30.9 °F 82% 30.20 in 7.0 mi South 6.9 mph - N/A   Overcast
2:27 PM 37.4 °F 32.1 °F 32.0 °F 81% 30.14 in 7.0 mi South 6.9 mph - N/A   Overcast
3:53 PM 37.4 °F 33.8 °F 32.0 °F 81% 30.16 in 9.0 mi SSE 4.6 mph - N/A   Overcast
4:53 PM 37.4 °F 33.8 °F 32.0 °F 81% 30.16 in 10.0 mi South 4.6 mph - N/A   Overcast
5:53 PM 37.4 °F 32.1 °F 33.8 °F 87% 30.12 in 10.0 mi South 6.9 mph - N/A   Overcast
6:53 PM 37.4 °F 34.9 °F 33.8 °F 87% 30.10 in 10.0 mi South 3.5 mph - N/A   Overcast
7:53 PM 37.4 °F 32.1 °F 33.8 °F 87% 30.09 in 10.0 mi South 6.9 mph - N/A   Overcast
8:53 PM 37.4 °F 32.8 °F 33.8 °F 87% 30.03 in 10.0 mi SSE 5.8 mph - N/A   Overcast
9:53 PM 36.0 °F 33.3 °F 33.1 °F 89% 30.00 in 10.0 mi ESE 3.5 mph - N/A   Overcast